Погода в Хирпоси

Россия / Чувашская Республика     55°30′47″N   47°08′15″E
В апреле 2022 года жителям России запретили посещать сайт meteo.paraplan.net по решению Генеральной прокуратуры. Аудитория сайта уменьшилась в 10 раз. Владельцы сайта не видят смысла в поддержке погодного сервера в таких условиях. Сайт будет закрыт в октябре.
темп.,
°C
ветер,
м/с
пор.,
м/с
влажн.,
%
обл.,
%
осадки,
мм/ч
давл.,
гПа
погр.,
м
4 октября, вт
вт400:00+11ююв71377100 1.3 1018778
03:00+10ююв81483100 1.9 1019675
06:00+10ююв61175100 0.0 1019574
09:00+10ююв71284100 0.3 1020665
12:00+10ююв71284100 0.0 1022627
15:00+11ююв6126099 0.0 1022649
18:00+10ююв61456100 0.0 1022450
21:00+11ююв91652100 0.0 1022742
5 октября, ср
ср500:00+9ююв81690100 2.1 1021819
03:00+8ююв71383100 3.8 1020623
06:00+9ююв7128690 0.2 1020528
09:00+9ююв7138852 0.2 1019536
12:00+13ю796880 0.4 1018940
15:00+14ю5970100 0.5 10181212
18:00+11ююв51187100 0.5 1017275
21:00+10ю379425 0.9 1016150
6 октября, чт
чт600:00+8ююз229194 0.1 101634
03:00+8юз5986100 0.5 1015597
06:00+7зюз488796 0.5 1014505
09:00+7зюз5782100 0.6 1014767
12:00+6з6787100 0.3 1015865
15:00+6з4791100 0.9 1016789
18:00+6з4887100 0.1 1017488
21:00+6з4891100 0.1 1018315
7 октября, пт
пт700:00+6зюз499498 0.0 1018292
03:00+5зюз48906 0.0 1018214
06:00+3юз49926 0.0 1017194
09:00+6ююз51284100 0.1 1016390
12:00+9зюз61188100 0.1 1015861
15:00+11зсз71283100 0.1 1016884
18:00+9зсз71383100 0.1 1018766
21:00+9з71375100 0.2 1019620
8 октября, сб
сб800:00+8зсз714808 0.0 1021619
03:00+6з613930 0.0 1022370
06:00+5з5119627 0.0 1023301
09:00+8з588536 0.0 1025420
12:00+12з67670 0.0 1024830
15:00+13зюз57635 0.0 1023935
18:00+9юз37795 0.0 1024116
21:00+7юз49855 0.0 1024161